Time,TemperatureF,DewpointF,PressureIn,WindDirection,WindDirectionDegrees,WindSpeedMPH,WindSpeedGustMPH,Humidity,HourlyPrecipIn,Conditions,Clouds,dailyrainin,SoftwareType,DateUTC
2013-06-27 00:01:00,69.0,48.0,30.09,WNW,282,17.0,23.0,47,0.00,,,0.00,,2013-06-27 06:01:00,
2013-06-27 00:12:00,68.0,49.0,30.09,WNW,296,19.0,27.0,51,0.00,,,0.00,,2013-06-27 06:12:00,
2013-06-27 00:22:00,67.0,49.0,30.10,WNW,299,15.0,25.0,52,0.00,,,0.00,,2013-06-27 06:22:00,
2013-06-27 00:34:00,66.0,49.0,30.10,WNW,290,19.0,24.0,54,0.00,,,0.00,,2013-06-27 06:34:00,
2013-06-27 00:43:00,66.0,49.0,30.10,WNW,293,19.0,27.0,54,0.00,,,0.00,,2013-06-27 06:43:00,
2013-06-27 00:53:00,66.0,50.0,30.10,WNW,296,19.0,23.0,56,0.00,,,0.00,,2013-06-27 06:53:00,
2013-06-27 01:02:00,65.0,50.0,30.11,WNW,287,16.0,23.0,58,0.00,,,0.00,,2013-06-27 07:02:00,
2013-06-27 01:12:00,65.0,50.0,30.11,WNW,291,19.0,24.0,59,0.00,,,0.00,,2013-06-27 07:12:00,
2013-06-27 01:22:00,64.0,50.0,30.11,WNW,282,20.0,26.0,61,0.00,,,0.00,,2013-06-27 07:22:00,
2013-06-27 01:33:00,64.0,51.0,30.11,WNW,288,18.0,26.0,62,0.00,,,0.00,,2013-06-27 07:33:00,
2013-06-27 01:42:00,64.0,50.0,30.12,West,279,17.0,24.0,61,0.00,,,0.00,,2013-06-27 07:42:00,
2013-06-27 01:52:00,64.0,50.0,30.12,West,274,20.0,28.0,61,0.00,,,0.00,,2013-06-27 07:52:00,
2013-06-27 02:01:00,64.0,50.0,30.12,WNW,296,17.0,29.0,61,0.00,,,0.00,,2013-06-27 08:01:00,
2013-06-27 02:11:00,64.0,50.0,30.12,WNW,288,19.0,24.0,60,0.00,,,0.00,,2013-06-27 08:11:00,
2013-06-27 02:22:00,64.0,50.0,30.12,West,279,15.0,25.0,60,0.00,,,0.00,,2013-06-27 08:22:00,
2013-06-27 02:34:00,64.0,49.0,30.13,West,265,10.0,22.0,59,0.00,,,0.00,,2013-06-27 08:34:00,
2013-06-27 02:52:00,64.0,50.0,30.13,WNW,288,13.0,20.0,60,0.00,,,0.00,,2013-06-27 08:52:00,
2013-06-27 03:02:00,64.0,50.0,30.13,West,281,13.0,21.0,61,0.00,,,0.00,,2013-06-27 09:02:00,
2013-06-27 03:22:00,62.0,51.0,30.14,NNE,20,9.0,15.0,66,0.00,,,0.00,,2013-06-27 09:22:00,
2013-06-27 03:34:00,61.0,50.0,30.14,NNE,21,9.0,13.0,67,0.00,,,0.00,,2013-06-27 09:34:00,
2013-06-27 03:43:00,60.0,49.0,30.14,North,355,5.0,10.0,68,0.00,,,0.00,,2013-06-27 09:43:00,
2013-06-27 03:53:00,59.0,50.0,30.15,NW,314,6.0,8.0,71,0.00,,,0.00,,2013-06-27 09:53:00,
2013-06-27 04:01:00,59.0,49.0,30.15,North,355,6.0,8.0,70,0.00,,,0.00,,2013-06-27 10:01:00,
2013-06-27 04:11:00,58.0,50.0,30.15,NNW,337,7.0,8.0,74,0.00,,,0.00,,2013-06-27 10:11:00,
2013-06-27 04:22:00,58.0,49.0,30.15,North,5,7.0,9.0,73,0.00,,,0.00,,2013-06-27 10:22:00,
2013-06-27 04:32:00,58.0,49.0,30.15,North,355,5.0,10.0,72,0.00,,,0.00,,2013-06-27 10:32:00,
2013-06-27 04:43:00,57.0,49.0,30.15,NNW,348,9.0,10.0,74,0.00,,,0.00,,2013-06-27 10:43:00,
2013-06-27 04:54:00,56.0,49.0,30.16,North,355,9.0,10.0,76,0.00,,,0.00,,2013-06-27 10:54:00,
2013-06-27 05:01:00,56.0,48.0,30.16,North,355,7.0,10.0,75,0.00,,,0.00,,2013-06-27 11:01:00,
2013-06-27 05:11:00,54.0,47.0,30.16,NNW,340,7.0,10.0,77,0.00,,,0.00,,2013-06-27 11:11:00,
2013-06-27 05:21:00,54.0,48.0,30.16,NNW,341,8.0,11.0,80,0.00,,,0.00,,2013-06-27 11:21:00,
2013-06-27 05:33:00,55.0,49.0,30.16,NNW,338,8.0,10.0,79,0.00,,,0.00,,2013-06-27 11:33:00,
2013-06-27 05:43:00,55.0,49.0,30.17,NNW,342,8.0,10.0,79,0.00,,,0.00,,2013-06-27 11:43:00,
2013-06-27 05:52:00,54.0,48.0,30.17,NNW,341,8.0,10.0,80,0.00,,,0.00,,2013-06-27 11:52:00,
2013-06-27 06:01:00,53.0,47.0,30.17,North,355,9.0,10.0,80,0.00,,,0.00,,2013-06-27 12:01:00,
2013-06-27 06:11:00,53.0,47.0,30.18,NNW,346,9.0,10.0,81,0.00,,,0.00,,2013-06-27 12:11:00,
2013-06-27 06:22:00,55.0,49.0,30.18,NNW,348,8.0,10.0,80,0.00,,,0.00,,2013-06-27 12:22:00,
2013-06-27 06:34:00,56.0,49.0,30.18,North,351,8.0,9.0,78,0.00,,,0.00,,2013-06-27 12:34:00,
2013-06-27 06:42:00,55.0,49.0,30.18,North,349,7.0,10.0,79,0.00,,,0.00,,2013-06-27 12:42:00,
2013-06-27 07:01:00,56.0,49.0,30.19,NNW,348,6.0,10.0,76,0.00,,,0.00,,2013-06-27 13:01:00,
2013-06-27 07:11:00,57.0,49.0,30.19,NNW,330,6.0,9.0,75,0.00,,,0.00,,2013-06-27 13:11:00,
2013-06-27 07:22:00,59.0,50.0,30.20,NNW,341,6.0,7.0,73,0.00,,,0.00,,2013-06-27 13:22:00,
2013-06-27 07:34:00,61.0,52.0,30.20,NNW,342,3.0,6.0,71,0.00,,,0.00,,2013-06-27 13:34:00,
2013-06-27 07:43:00,63.0,51.0,30.20,NNW,341,3.0,4.0,66,0.00,,,0.00,,2013-06-27 13:43:00,
2013-06-27 07:52:00,65.0,52.0,30.20,North,350,0.0,2.0,62,0.00,,,0.00,,2013-06-27 13:52:00,
2013-06-27 08:01:00,67.0,52.0,30.20,North,350,0.0,0.0,58,0.00,,,0.00,,2013-06-27 14:01:00,
2013-06-27 08:11:00,68.0,51.0,30.21,NNE,28,0.0,0.0,55,0.00,,,0.00,,2013-06-27 14:11:00,
2013-06-27 08:22:00,68.0,52.0,30.21,NNE,28,0.0,0.0,56,0.00,,,0.00,,2013-06-27 14:22:00,
2013-06-27 08:33:00,68.0,50.0,30.21,NNE,29,0.0,0.0,53,0.00,,,0.00,,2013-06-27 14:33:00,
2013-06-27 08:43:00,69.0,51.0,30.20,ENE,69,1.0,4.0,52,0.00,,,0.00,,2013-06-27 14:43:00,
2013-06-27 08:52:00,69.0,51.0,30.20,East,88,0.0,4.0,53,0.00,,,0.00,,2013-06-27 14:52:00,
2013-06-27 09:11:00,69.0,52.0,30.20,ESE,123,0.0,0.0,54,0.00,,,0.00,,2013-06-27 15:11:00,
2013-06-27 09:22:00,70.0,53.0,30.20,SE,132,1.0,5.0,54,0.00,,,0.00,,2013-06-27 15:22:00,
2013-06-27 09:33:00,71.0,52.0,30.20,SE,130,1.0,6.0,52,0.00,,,0.00,,2013-06-27 15:33:00,
2013-06-27 09:42:00,72.0,52.0,30.20,SSE,161,1.0,6.0,49,0.00,,,0.00,,2013-06-27 15:42:00,
2013-06-27 09:52:00,72.0,52.0,30.20,SSE,152,3.0,9.0,49,0.00,,,0.00,,2013-06-27 15:52:00,
2013-06-27 10:02:00,73.0,53.0,30.20,SSE,154,3.0,8.0,49,0.00,,,0.00,,2013-06-27 16:02:00,
2013-06-27 10:11:00,73.0,53.0,30.20,ESE,107,3.0,8.0,49,0.00,,,0.00,,2013-06-27 16:11:00,
2013-06-27 10:23:00,74.0,55.0,30.20,SE,126,3.0,7.0,51,0.00,,,0.00,,2013-06-27 16:23:00,
2013-06-27 10:43:00,75.0,53.0,30.19,ESE,119,6.0,10.0,47,0.00,,,0.00,,2013-06-27 16:43:00,
2013-06-27 10:53:00,74.0,52.0,30.19,ESE,123,7.0,9.0,47,0.00,,,0.00,,2013-06-27 16:53:00,
2013-06-27 11:01:00,75.0,54.0,30.19,ESE,107,5.0,8.0,48,0.00,,,0.00,,2013-06-27 17:01:00,
2013-06-27 11:11:00,76.0,53.0,30.19,ESE,115,7.0,10.0,45,0.00,,,0.00,,2013-06-27 17:11:00,
2013-06-27 11:22:00,76.0,52.0,30.19,SE,134,6.0,9.0,44,0.00,,,0.00,,2013-06-27 17:22:00,
2013-06-27 11:33:00,78.0,51.0,30.19,ESE,118,6.0,9.0,39,0.00,,,0.00,,2013-06-27 17:33:00,
2013-06-27 11:43:00,78.0,51.0,30.19,ESE,118,6.0,9.0,39,0.00,,,0.00,,2013-06-27 17:43:00,
2013-06-27 11:53:00,78.0,51.0,30.19,ESE,118,6.0,9.0,39,0.00,,,0.00,,2013-06-27 17:53:00,
2013-06-27 12:01:00,78.0,51.0,30.19,ESE,118,6.0,9.0,39,0.00,,,0.00,,2013-06-27 18:01:00,
2013-06-27 12:11:00,78.0,51.0,30.19,ESE,118,6.0,9.0,39,0.00,,,0.00,,2013-06-27 18:11:00,